Wetterdaten: Sonntag, 28.12.2014
Datum Zeit Temp. A. Feuchte A. Luftdruck Regen Wind Richtung Richtung Sonnenschein ET UV Solar Taupunkt Windchill Windben Empfang
28.12.2014 00:00 -3,2 C 76 % 1000,9 hPa 0,0 l/m 0,0 km/h (0 Bft) S 180 0 min 0,000 mm 0,0 UV-I 0 W/m -6,8 C -3,2 C 0,0 km/h (0 Bft) 0,00 %
28.12.2014 01:00 -3,2 C 76 % 1000,9 hPa 0,0 l/m 0,0 km/h (0 Bft) S 180 0 min 0,000 mm 0,0 UV-I 0 W/m -6,8 C -3,2 C 0,0 km/h (0 Bft) 0,00 %
28.12.2014 02:00 -3,1 C 76 % 1000,9 hPa 0,0 l/m 0,0 km/h (0 Bft) S 180 0 min 0,000 mm 0,0 UV-I 0 W/m -6,7 C -3,1 C 0,0 km/h (0 Bft) 0,00 %
28.12.2014 03:00 -3,0 C 76 % 1000,9 hPa 0,0 l/m 0,0 km/h (0 Bft) S 180 0 min 0,000 mm 0,0 UV-I 0 W/m -6,6 C -3,0 C 0,0 km/h (0 Bft) 0,00 %
28.12.2014 04:00 -2,9 C 76 % 1001,6 hPa 0,0 l/m 0,0 km/h (0 Bft) S 180 0 min 0,000 mm 0,0 UV-I 0 W/m -6,5 C -2,9 C 0,0 km/h (0 Bft) 0,00 %
28.12.2014 05:00 -2,7 C 76 % 1003,0 hPa 0,0 l/m 0,0 km/h (0 Bft) S 180 0 min 0,000 mm 0,0 UV-I 0 W/m -6,3 C -2,7 C 0,0 km/h (0 Bft) 0,00 %
28.12.2014 06:00 -2,7 C 77 % 1003,4 hPa 0,0 l/m 0,0 km/h (0 Bft) S 180 0 min 0,000 mm 0,0 UV-I 0 W/m -6,2 C -2,7 C 0,0 km/h (0 Bft) 0,00 %
28.12.2014 07:00 -2,6 C 77 % 1004,4 hPa 0,0 l/m 0,0 km/h (0 Bft) S 180 0 min 0,000 mm 0,0 UV-I 0 W/m -6,1 C -2,6 C 0,0 km/h (0 Bft) 0,00 %
28.12.2014 08:00 -2,5 C 78 % 1005,8 hPa 0,0 l/m 0,0 km/h (0 Bft) S 180 0 min 0,000 mm 0,0 UV-I 0 W/m -5,8 C -2,5 C 0,0 km/h (0 Bft) 0,00 %
28.12.2014 09:00 -2,5 C 68 % 1007,5 hPa 0,0 l/m 0,0 km/h (0 Bft) S 180 0 min 0,000 mm 0,0 UV-I 5 W/m -7,6 C -2,5 C 0,0 km/h (0 Bft) 0,00 %
28.12.2014 10:00 -2,7 C 66 % 1009,0 hPa 0,0 l/m 0,0 km/h (0 Bft) S 180 0 min 0,000 mm 0,0 UV-I 30 W/m -8,1 C -2,7 C 0,0 km/h (0 Bft) 0,00 %
28.12.2014 11:00 -2,8 C 69 % 1010,4 hPa 0,0 l/m 0,0 km/h (0 Bft) S 180 0 min 0,000 mm 1,0 UV-I 66 W/m -7,7 C -2,8 C 0,0 km/h (0 Bft) 0,00 %
28.12.2014 12:00 -2,9 C 71 % 1011,2 hPa 0,0 l/m 0,0 km/h (0 Bft) S 180 0 min 0,000 mm 1,0 UV-I 95 W/m -7,4 C -2,9 C 0,0 km/h (0 Bft) 0,00 %
28.12.2014 13:00 -2,9 C 71 % 1012,2 hPa 0,0 l/m 0,0 km/h (0 Bft) S 180 0 min 0,000 mm 1,0 UV-I 69 W/m -7,4 C -2,9 C 0,0 km/h (0 Bft) 0,00 %
28.12.2014 14:00 -2,9 C 69 % 1013,7 hPa 0,0 l/m 0,0 km/h (0 Bft) S 180 0 min 0,000 mm 1,0 UV-I 70 W/m -7,8 C -2,9 C 0,0 km/h (0 Bft) 0,00 %
28.12.2014 15:00 -3,5 C 71 % 1015,6 hPa 0,0 l/m 0,0 km/h (0 Bft) S 180 0 min 0,000 mm 0,0 UV-I 25 W/m -8,0 C -3,5 C 0,0 km/h (0 Bft) 0,00 %
28.12.2014 16:00 -3,6 C 70 % 1018,1 hPa 0,0 l/m 0,0 km/h (0 Bft) S 180 0 min 0,000 mm 0,0 UV-I 0 W/m -8,3 C -3,6 C 0,0 km/h (0 Bft) 0,00 %
28.12.2014 17:00 -4,4 C 63 % 1020,3 hPa 0,0 l/m 0,0 km/h (0 Bft) S 180 0 min 0,000 mm 0,0 UV-I 0 W/m -10,4 C -4,4 C 0,0 km/h (0 Bft) 0,00 %
28.12.2014 18:00 -5,2 C 60 % 1022,6 hPa 0,0 l/m 0,0 km/h (0 Bft) S 180 0 min 0,000 mm 0,0 UV-I 0 W/m -11,7 C -5,2 C 0,0 km/h (0 Bft) 0,00 %
28.12.2014 19:00 -6,6 C 60 % 1024,3 hPa 0,0 l/m 0,0 km/h (0 Bft) S 180 0 min 0,000 mm 0,0 UV-I 0 W/m -13,0 C -6,6 C 0,0 km/h (0 Bft) 0,00 %
28.12.2014 20:00 -9,1 C 64 % 1026,1 hPa 0,0 l/m 0,0 km/h (0 Bft) S 180 0 min 0,000 mm 0,0 UV-I 0 W/m -14,6 C -9,1 C 0,0 km/h (0 Bft) 0,00 %
28.12.2014 21:00 -10,3 C 67 % 1027,4 hPa 0,0 l/m 0,0 km/h (0 Bft) S 180 0 min 0,000 mm 0,0 UV-I 0 W/m -15,2 C -10,3 C 0,0 km/h (0 Bft) 0,00 %
28.12.2014 22:00 -10,3 C 67 % 1028,1 hPa 0,0 l/m 0,0 km/h (0 Bft) S 180 0 min 0,000 mm 0,0 UV-I 0 W/m -15,2 C -10,3 C 0,0 km/h (0 Bft) 0,00 %
28.12.2014 23:00 -11,5 C 68 % 1029,4 hPa 0,0 l/m 0,0 km/h (0 Bft) S 180 0 min 0,000 mm 0,0 UV-I 0 W/m -16,2 C -11,5 C 0,0 km/h (0 Bft) 0,00 %
_ Min-Zeit 23:00 18:00 00:00 - 00:00 - - - - - - 23:00 23:00 00:00 00:00
Minimum _ -11,5 C 60 % 1000,9 hPa - 0,0 km/h (0 Bft) - - - - - - -16,2 C -11,5 C 0,0 km/h (0 Bft) 0,00 %
_ Max-Zeit 08:00 08:00 23:00 00:00 00:00 - - 00:00 00:00 11:00 12:00 08:00 08:00 00:00 00:00
Maximum _ -2,5 C 78 % 1029,4 hPa 0,0 l/m 0,0 km/h
S (0 Bft)
- - 0 min 0,000 mm 1,0 UV-I 95 W/m -5,8 C -2,5 C 0,0 km/h
S (0 Bft)
0,00 %
Durchschnitt _ -4,5 C 70 % 1012,9 hPa #0,0 l/m 0,0 km/h (0 Bft) - - - #0 min. #0,000 mm 1,0 UV-I 51 W/m -9,1 C -4,5 C 0,0 km/h (0 Bft) 0,00 %